DRK4001 VNKT-VQPR

Flight info

Callsign DRK4001
Flight time 0h 45m
Altitude 35000
Route KIMTI G348 SUBSU DCT TAKTI DCT PRO DCT PR
Aircraft A319/M-SDE3FGHIRWY/LB1

Departure

Time 2026-04-28 17:29
Airport Tribhuvan International Airport (VNKT)

Arrival

Time 2026-04-28 18:14
Airport Paro International Airport (VQPR)
Time Latitude Longitude Altitude Speed Heading
2026-04-28 17:06 27.69938 85.35810 4388 ft 0 kts 292°
2026-04-28 17:20 27.69934 85.35820 4388 ft 4 kts 292°
2026-04-28 17:21 27.69924 85.35848 4388 ft 4 kts 292°
2026-04-28 17:21 27.69915 85.35876 4392 ft 4 kts 279°
2026-04-28 17:21 27.69915 85.35905 4395 ft 4 kts 237°
2026-04-28 17:22 27.69929 85.35918 4396 ft 1 kts 201°
2026-04-28 17:24 27.69914 85.35912 4396 ft 7 kts 200°
2026-04-28 17:24 27.69838 85.35877 4394 ft 14 kts 201°
2026-04-28 17:25 27.69736 85.35830 4391 ft 17 kts 202°
2026-04-28 17:25 27.69488 85.35716 4383 ft 22 kts 202°
2026-04-28 17:25 27.69337 85.35648 4368 ft 22 kts 202°
2026-04-28 17:26 27.69190 85.35582 4354 ft 17 kts 201°
2026-04-28 17:26 27.69090 85.35563 4350 ft 11 kts 146°
2026-04-28 17:26 27.69037 85.35619 4356 ft 9 kts 160°
2026-04-28 17:26 27.68963 85.35597 4350 ft 13 kts 201°
2026-04-28 17:27 27.68863 85.35551 4345 ft 18 kts 202°
2026-04-28 17:27 27.68726 85.35488 4342 ft 25 kts 202°
2026-04-28 17:27 27.68561 85.35413 4336 ft 24 kts 201°
2026-04-28 17:27 27.68470 85.35354 4334 ft 14 kts 239°
2026-04-28 17:28 27.68408 85.35326 4332 ft 8 kts 144°
2026-04-28 17:28 27.68433 85.35355 4333 ft 4 kts 22°
2026-04-28 17:28 27.68588 85.35428 4332 ft 59 kts 22°
2026-04-28 17:29 27.69184 85.35698 4354 ft 122 kts 22°
2026-04-28 17:29 27.70123 85.36124 4437 ft 168 kts 22°
2026-04-28 17:29 27.71195 85.36629 5135 ft 161 kts 21°
2026-04-28 17:30 27.73248 85.36030 6225 ft 174 kts 307°
2026-04-28 17:30 27.73138 85.33278 7109 ft 199 kts 241°
2026-04-28 17:30 27.72479 85.31918 7783 ft 201 kts 241°
2026-04-28 17:31 27.71791 85.30517 8485 ft 203 kts 237°
2026-04-28 17:31 27.69297 85.29597 9721 ft 211 kts 157°
2026-04-28 17:32 27.67828 85.32353 11061 ft 216 kts 103°
2026-04-28 17:32 27.67491 85.34010 11727 ft 218 kts 103°
2026-04-28 17:32 27.67149 85.35688 12323 ft 224 kts 104°
2026-04-28 17:32 27.66749 85.37474 12590 ft 247 kts 105°
2026-04-28 17:33 27.66287 85.39441 12966 ft 272 kts 105°
2026-04-28 17:33 27.65776 85.41600 13352 ft 296 kts 105°
2026-04-28 17:33 27.65222 85.43927 13701 ft 320 kts 105°
2026-04-28 17:33 27.64822 85.45606 13903 ft 336 kts 105°
2026-04-28 17:34 27.63984 85.49127 14379 ft 362 kts 105°
2026-04-28 17:34 27.63327 85.51896 15072 ft 369 kts 105°
2026-04-28 17:34 27.62662 85.54706 15820 ft 373 kts 105°
2026-04-28 17:34 27.61987 85.57551 16566 ft 378 kts 105°
2026-04-28 17:35 27.61305 85.60428 17305 ft 382 kts 105°
2026-04-28 17:35 27.60815 85.63380 17995 ft 387 kts 95°
2026-04-28 17:35 27.60645 85.66417 18703 ft 390 kts 94°
2026-04-28 17:35 27.60473 85.69493 19396 ft 394 kts 94°
2026-04-28 17:36 27.60166 85.72580 20052 ft 398 kts 101°
2026-04-28 17:36 27.59582 85.75642 20708 ft 402 kts 102°
2026-04-28 17:36 27.58986 85.78740 21355 ft 406 kts 102°
2026-04-28 17:36 27.58382 85.81866 21977 ft 410 kts 102°
2026-04-28 17:37 27.57776 85.84993 22559 ft 413 kts 102°
2026-04-28 17:37 27.57153 85.88194 23133 ft 417 kts 103°
2026-04-28 17:37 27.56531 85.91407 23698 ft 421 kts 102°
2026-04-28 17:37 27.55907 85.94645 24242 ft 424 kts 102°
2026-04-28 17:38 27.55282 85.97900 24780 ft 428 kts 102°
2026-04-28 17:38 27.54651 86.01193 25280 ft 431 kts 102°
2026-04-28 17:38 27.54022 86.04465 25763 ft 434 kts 102°
2026-04-28 17:38 27.53369 86.07846 26257 ft 438 kts 102°
2026-04-28 17:39 27.52725 86.11162 26733 ft 441 kts 103°
2026-04-28 17:39 27.52065 86.14548 27201 ft 444 kts 103°
2026-04-28 17:39 27.50726 86.21383 28104 ft 450 kts 103°
2026-04-28 17:40 27.50042 86.24843 28534 ft 453 kts 103°
2026-04-28 17:40 27.49360 86.28313 28951 ft 456 kts 103°
2026-04-28 17:40 27.48682 86.31820 29347 ft 459 kts 102°
2026-04-28 17:40 27.48015 86.35337 29731 ft 462 kts 102°
2026-04-28 17:41 27.47345 86.38890 30113 ft 464 kts 102°
2026-04-28 17:41 27.46672 86.42453 30476 ft 467 kts 102°
2026-04-28 17:41 27.45990 86.46035 30841 ft 469 kts 102°
2026-04-28 17:41 27.45298 86.49627 31346 ft 468 kts 102°
2026-04-28 17:42 27.44608 86.53194 31855 ft 466 kts 102°
2026-04-28 17:42 27.44151 86.55557 32172 ft 466 kts 102°
2026-04-28 17:42 27.43231 86.60321 32810 ft 464 kts 102°
2026-04-28 17:42 27.42548 86.63862 33281 ft 464 kts 102°
2026-04-28 17:43 27.41860 86.67413 33744 ft 463 kts 102°
2026-04-28 17:43 27.41173 86.70940 34206 ft 462 kts 103°
2026-04-28 17:43 27.40492 86.74418 34666 ft 461 kts 103°
2026-04-28 17:43 27.39799 86.77953 34949 ft 461 kts 103°
2026-04-28 17:44 27.39113 86.81466 35009 ft 459 kts 102°
2026-04-28 17:44 27.37752 86.88478 35006 ft 457 kts 102°
2026-04-28 17:45 27.36384 86.95462 35006 ft 457 kts 103°
2026-04-28 17:45 27.35010 87.02437 35006 ft 457 kts 103°
2026-04-28 17:46 27.33632 87.09418 35005 ft 457 kts 103°
2026-04-28 17:46 27.32240 87.16389 35007 ft 456 kts 105°
2026-04-28 17:47 27.29769 87.22916 35004 ft 455 kts 122°
2026-04-28 17:47 27.26425 87.28962 35001 ft 455 kts 122°
2026-04-28 17:48 27.23098 87.35013 34999 ft 455 kts 122°
2026-04-28 17:48 27.20332 87.40042 34992 ft 455 kts 122°
2026-04-28 17:49 27.16996 87.46085 34986 ft 455 kts 122°
2026-04-28 17:49 27.13659 87.52105 34646 ft 454 kts 122°
2026-04-28 17:49 27.11981 87.55132 33972 ft 456 kts 122°
2026-04-28 17:50 27.10306 87.58157 33284 ft 457 kts 122°
2026-04-28 17:50 27.08623 87.61193 32585 ft 459 kts 122°
2026-04-28 17:50 27.06936 87.64238 31861 ft 460 kts 122°
2026-04-28 17:50 27.05245 87.67290 31115 ft 461 kts 122°
2026-04-28 17:51 27.03550 87.70347 30636 ft 461 kts 122°
2026-04-28 17:51 27.01854 87.73401 30391 ft 464 kts 122°
2026-04-28 17:51 27.00137 87.76482 30139 ft 465 kts 122°
2026-04-28 17:51 26.98444 87.79515 29889 ft 465 kts 122°
2026-04-28 17:52 26.96705 87.82627 29639 ft 465 kts 122°
2026-04-28 17:52 26.95009 87.85662 29391 ft 464 kts 122°
2026-04-28 17:52 26.91580 87.91811 28887 ft 460 kts 122°
2026-04-28 17:53 26.89916 87.94796 28643 ft 459 kts 122°
2026-04-28 17:53 26.88208 87.97857 28385 ft 457 kts 122°
2026-04-28 17:53 26.86539 88.00845 28134 ft 455 kts 122°
2026-04-28 17:53 26.84862 88.03838 27887 ft 453 kts 122°
2026-04-28 17:54 26.83191 88.06819 27635 ft 452 kts 122°
2026-04-28 17:54 26.81522 88.09789 27387 ft 450 kts 122°
2026-04-28 17:54 26.79854 88.12748 27136 ft 448 kts 122°
2026-04-28 17:54 26.78194 88.15696 26889 ft 446 kts 122°
2026-04-28 17:55 26.76542 88.18635 26635 ft 445 kts 122°
2026-04-28 17:55 26.74911 88.21558 26385 ft 443 kts 122°
2026-04-28 17:55 26.73319 88.24505 26132 ft 441 kts 118°
2026-04-28 17:55 26.72147 88.27664 25750 ft 437 kts 107°
2026-04-28 17:56 26.71570 88.30979 25167 ft 433 kts 95°
2026-04-28 17:56 26.71590 88.34333 24578 ft 430 kts 84°
2026-04-28 17:56 26.72173 88.37597 23997 ft 426 kts 73°
2026-04-28 17:56 26.73286 88.40644 23426 ft 423 kts 62°
2026-04-28 17:57 26.74791 88.43460 22864 ft 420 kts 58°
2026-04-28 17:57 26.76309 88.46227 22321 ft 417 kts 58°
2026-04-28 17:57 26.77818 88.48985 21840 ft 414 kts 58°
2026-04-28 17:57 26.79301 88.51697 21474 ft 413 kts 58°
2026-04-28 17:58 26.80797 88.54431 21099 ft 411 kts 58°
2026-04-28 17:58 26.82283 88.57153 20724 ft 409 kts 58°
2026-04-28 17:58 26.83759 88.59862 20348 ft 406 kts 59°
2026-04-28 17:58 26.85230 88.62562 19974 ft 404 kts 59°
2026-04-28 17:59 26.86687 88.65237 19595 ft 402 kts 59°
2026-04-28 17:59 26.88138 88.67903 19221 ft 399 kts 59°
2026-04-28 17:59 26.89578 88.70552 18846 ft 397 kts 59°
2026-04-28 17:59 26.91012 88.73189 18475 ft 395 kts 59°
2026-04-28 18:00 26.92435 88.75802 18096 ft 393 kts 59°
2026-04-28 18:00 26.93858 88.78411 17722 ft 391 kts 58°
2026-04-28 18:00 26.95269 88.80995 17347 ft 388 kts 58°
2026-04-28 18:00 26.96652 88.83591 16960 ft 386 kts 62°
2026-04-28 18:01 26.97854 88.86269 16587 ft 384 kts 60°
2026-04-28 18:01 26.99487 88.88629 16214 ft 381 kts 49°
2026-04-28 18:01 27.01211 88.90847 15877 ft 374 kts 49°
2026-04-28 18:01 27.02900 88.93017 15629 ft 364 kts 49°
2026-04-28 18:02 27.04536 88.95139 15377 ft 355 kts 49°
2026-04-28 18:02 27.06110 88.97207 15329 ft 342 kts 50°
2026-04-28 18:02 27.07612 88.99199 15295 ft 328 kts 50°
2026-04-28 18:02 27.09061 89.01127 15269 ft 316 kts 50°
2026-04-28 18:03 27.10436 89.02959 15243 ft 305 kts 50°
2026-04-28 18:03 27.11794 89.04768 15216 ft 294 kts 50°
2026-04-28 18:03 27.13087 89.06493 15178 ft 284 kts 50°
2026-04-28 18:03 27.14326 89.08150 15079 ft 277 kts 50°
2026-04-28 18:04 27.15538 89.09773 14978 ft 267 kts 50°
2026-04-28 18:04 27.16716 89.11350 14862 ft 258 kts 50°
2026-04-28 18:04 27.17851 89.12871 14768 ft 250 kts 50°
2026-04-28 18:04 27.18951 89.14341 14670 ft 243 kts 50°
2026-04-28 18:05 27.20029 89.15780 14647 ft 240 kts 50°
2026-04-28 18:05 27.20752 89.16745 14588 ft 236 kts 50°
2026-04-28 18:05 27.22109 89.18560 14450 ft 221 kts 50°
2026-04-28 18:05 27.23064 89.19839 14441 ft 206 kts 50°
2026-04-28 18:06 27.23961 89.21037 14437 ft 195 kts 50°
2026-04-28 18:06 27.24827 89.22197 14438 ft 193 kts 50°
2026-04-28 18:06 27.25687 89.23350 14438 ft 192 kts 50°
2026-04-28 18:06 27.26550 89.24503 14434 ft 192 kts 50°
2026-04-28 18:07 27.27410 89.25652 14435 ft 192 kts 50°
2026-04-28 18:07 27.28269 89.26800 14436 ft 192 kts 50°
2026-04-28 18:07 27.29127 89.27949 14399 ft 193 kts 50°
2026-04-28 18:07 27.29987 89.29100 14344 ft 192 kts 50°
2026-04-28 18:08 27.30845 89.30248 14294 ft 192 kts 50°
2026-04-28 18:08 27.31704 89.31398 14190 ft 192 kts 50°
2026-04-28 18:08 27.32561 89.32545 14063 ft 191 kts 50°
2026-04-28 18:08 27.33415 89.33690 13942 ft 191 kts 50°
2026-04-28 18:09 27.34267 89.34835 13762 ft 191 kts 50°
2026-04-28 18:09 27.35118 89.35979 13513 ft 189 kts 50°
2026-04-28 18:09 27.35947 89.37095 13266 ft 182 kts 50°
2026-04-28 18:09 27.36732 89.38152 13016 ft 171 kts 50°
2026-04-28 18:10 27.37500 89.39129 12722 ft 169 kts 40°
2026-04-28 18:10 27.38560 89.39657 12332 ft 165 kts
2026-04-28 18:10 27.39675 89.39457 11893 ft 164 kts 333°
2026-04-28 18:10 27.40504 89.38618 11493 ft 161 kts 303°
2026-04-28 18:11 27.41088 89.37575 11125 ft 159 kts 300°
2026-04-28 18:11 27.41646 89.36512 10776 ft 156 kts 300°
2026-04-28 18:11 27.42238 89.35488 10444 ft 158 kts 311°
2026-04-28 18:11 27.43211 89.34972 10070 ft 157 kts 353°
2026-04-28 18:12 27.44232 89.35361 9653 ft 160 kts 41°
2026-04-28 18:12 27.44789 89.36425 9198 ft 161 kts 76°
2026-04-28 18:12 27.44876 89.37681 8760 ft 162 kts 94°
2026-04-28 18:12 27.44624 89.38894 8411 ft 158 kts 111°
2026-04-28 18:13 27.44177 89.39995 8158 ft 151 kts 117°
2026-04-28 18:13 27.43621 89.40975 7888 ft 149 kts 141°
2026-04-28 18:13 27.42713 89.41450 7702 ft 144 kts 166°
2026-04-28 18:13 27.41733 89.41688 7509 ft 144 kts 166°
2026-04-28 18:14 27.40834 89.42153 7365 ft 133 kts 154°
2026-04-28 18:14 27.40134 89.42592 7336 ft 91 kts 150°
2026-04-28 18:14 27.39747 89.42838 7325 ft 36 kts 150°
2026-04-28 18:14 27.39565 89.42955 7319 ft 18 kts 150°
2026-04-28 18:15 27.39463 89.43002 7315 ft 11 kts 145°
2026-04-28 18:15 27.39471 89.43012 7315 ft 3 kts 333°
2026-04-28 18:15 27.39521 89.42983 7317 ft 16 kts 331°
2026-04-28 18:15 27.39639 89.42909 7323 ft 20 kts 330°
2026-04-28 18:16 27.39764 89.42829 7325 ft 21 kts 330°
2026-04-28 18:16 27.39885 89.42752 7330 ft 19 kts 330°
2026-04-28 18:16 27.40007 89.42674 7332 ft 22 kts 330°
2026-04-28 18:16 27.40153 89.42581 7337 ft 24 kts 330°
2026-04-28 18:17 27.40293 89.42492 7341 ft 22 kts 330°
2026-04-28 18:17 27.40422 89.42410 7346 ft 20 kts 330°
2026-04-28 18:17 27.40533 89.42339 7351 ft 13 kts 331°
2026-04-28 18:17 27.40591 89.42298 7354 ft 9 kts 313°
2026-04-28 18:18 27.40588 89.42238 7353 ft 9 kts 236°
2026-04-28 18:18 27.40560 89.42207 7353 ft 6 kts 221°
2026-04-28 18:18 27.40546 89.42184 7355 ft 3 kts 240°
2026-04-28 18:18 27.40538 89.42169 7355 ft 3 kts 240°
2026-04-28 18:19 27.40535 89.42162 7354 ft 0 kts 240°